TIME,DELAY(SENSOR),PRES,OXYGEN,RAWTEMP,T(OPTODE),TCPHASE,FLUOR,BETA(BETA700),BETA(BETA412),BETA(BETA440),CDOM,C(CSC),ED(ED412.40),ED(ED444.00),ED(ED489.70),ED(ED554.30),LU(LU411.80),LU(LU443.40),LU(LU489.60),LU(LU554.10),COMP,TILTX,TILTY,CHECK
1382327433,5810,822.8800048828125000,49.9319610595703100,657.5120239257812000,4.7098479270935060,53.5222206115722660,52,101,88,79,79,15254,2147751853,2147423049,2148012004,2147874267,2147639131,2147055808,2148264822,2147198226,46,4,13,18649
1382331029,5809,871.8599853515625000,54.5132102966308600,662.6583862304688000,4.5404148101806640,52.9631500244140600,52,96,86,77,79,15256,2147752374,2147423350,2148012224,2147873280,2147640621,2147057316,2148262601,2147195876,774,4,13,28378
1382334629,5809,885.6099853515625000,55.7547798156738300,664.9174804687500000,4.4659438133239750,52.8255310058593750,52,96,83,77,77,15256,2147751771,2147421211,2148008859,2147874066,2147643355,2147059172,2148259456,2147196864,529,4,13,54127
1382338229,5808,912.4799804687500000,56.1958312988281250,666.9218139648438000,4.3998298645019530,52.7966308593750000,52,97,85,78,78,15259,2147751972,2147422784,2148011748,2147875126,2147641334,2147055552,2148270363,2147198208,3501,4,13,24918
1382341829,5808,917.1799926757812000,56.1411209106445300,666.3300781250000000,4.4193530082702640,52.7932701110839840,52,96,82,79,78,15256,2147754697,2147424566,2148010148,2147874715,2147643958,2147056676,2148261312,2147196498,3571,4,13,54721
1382345429,5810,914.3200073242188000,55.8001899719238300,666.9713745117188000,4.3981900215148930,52.8461303710937500,53,97,83,78,79,15259,2147754258,2147420854,2148008905,2147875702,2147640722,2147060169,2148264566,2147195593,157,4,13,25535
1382349029,5803,942.4000244140625000,57.0492782592773440,670.3845825195312000,4.2854900360107420,52.7297210693359400,51,97,83,78,78,15257,2147756059,2147423286,2148014308,2147870537,2147643099,2147051465,2148266029,2147196123,3441,4,13,55022
1382352629,5809,945.8900146484375000,57.0032081604003900,670.7595825195312000,4.2730998992919920,52.7426300048828100,52,96,86,78,78,15257,2147758272,2147426761,2148014262,2147872987,2147642404,2147054656,2148265042,2147199469,120,4,13,21548
1382356229,5810,953.0399780273438000,57.3243103027343750,670.0759887695312000,4.2956848144531250,52.6890983581543000,52,96,82,79,78,15258,2147754715,2147423195,2148010697,2147876315,2147641910,2147049261,2148260242,2147201225,27,4,13,59497
1382359829,5809,983.6099853515625000,57.5843505859375000,672.5092163085938000,4.2152748107910160,52.6906204223632800,51,97,84,77,77,15253,2147757248,2147422628,2148012909,2147874093,2147641892,2147050678,2148267090,2147198345,3544,3,13,23269
1382363429,5807,995.1599731445312000,57.1052207946777340,670.7514038085938000,4.2733731269836430,52.7237205505371100,52,98,82,79,78,15253,2147755364,2147424950,2148012571,2147872978,2147638884,2147053714,2148266550,2147195328,420,4,13,2341
1382367029,5807,986.7399902343750000,56.8769416809082000,670.2188720703125000,4.2909660339355470,52.7505187988281250,52,98,85,77,78,15257,2147756690,2147425645,2148008027,2147873554,2147642139,2147055168,2148266614,2147195337,323,4,13,51625
1382370629,5808,986.3699951171875000,57.2567291259765600,671.9948730468750000,4.2322750091552730,52.7244911193847660,52,98,82,78,78,15255,2147756132,2147423744,2148012717,2147875273,2147642953,2147053595,2148267684,2147198025,353,4,13,39953
1382374229,5806,986.9199829101562000,57.5397300720214840,672.9097290039062000,4.2020320892333980,52.6973915100097660,52,96,88,79,79,15240,2147756416,2147424813,2148011145,2147872694,2147641737,2147053339,2148264841,2147199158,240,4,13,42740
1382377829,5807,991.8300170898438000,57.8465309143066400,672.9423217773438000,4.2009530067443850,52.6556892395019500,51,96,85,78,78,15243,2147753993,2147423917,2148012480,2147875373,2147638957,2147054756,2148263862,2147194578,104,4,13,23297
1382381429,5808,984.4099731445312000,57.7452812194824200,672.5800170898438000,4.2129330635070800,52.6689605712890600,53,97,87,78,78,15225,2147752768,2147425554,2148011446,2147873325,2147642240,2147050477,2148259474,2147196196,3595,3,13,6352
1382385029,5812,976.7399902343750000,58.0899391174316400,674.4373779296875000,4.1515030860900880,52.6483993530273440,52,96,87,77,77,15225,2147755245,2147425792,2148009718,2147873856,2147643154,2147056841,2148265910,2147197284,2756,4,13,1478
1382388629,5810,985.5000000000000000,58.2327308654785160,675.1995849609375000,4.1262822151184080,52.6419601440429700,51,97,87,79,79,15227,2147754422,2147423789,2148011849,2147872950,2147644224,2147054665,2148266221,2147194843,3471,4,13,52417
1382392229,5810,987.5200195312500000,58.5532608032226560,675.1945800781250000,4.1264457702636720,52.5987281799316400,52,98,87,78,78,15229,2147752877,2147422628,2148013485,2147875565,2147642742,2147054692,2148263158,2147196306,3476,4,13,44898
1382395829,5810,995.2000122070312000,58.3926887512207000,674.0072021484375000,4.1657328605651855,52.6056213378906250,52,97,82,79,78,15236,2147754139,2147423606,2148011638,2147872658,2147644224,2147063241,2148267364,2147196489,177,3,13,62918
1382399429,5808,1003.5900268554688000,57.1756401062011700,671.8181762695312000,4.2381172180175780,52.7305412292480500,52,99,87,79,78,15225,2147758034,2147426651,2148012608,2147872914,2147642998,2147054500,2148263680,2147194212,720,4,13,5186
1382403029,5811,992.1199951171875000,56.9078712463378900,672.0601196289062000,4.2301201820373535,52.7698516845703100,52,96,88,78,78,15233,2147756598,2147423478,2148011849,2147874752,2147640173,2147055049,2148265801,2147197796,60,4,13,50532
1382406629,5809,994.0300292968750000,56.9615707397460940,671.6439208984375000,4.2438769340515140,52.7565193176269500,52,97,82,78,79,15234,2147755611,2147425408,2148010724,2147875565,2147641929,2147050331,2148264530,2147196278,3557,4,13,21921
1382410229,5811,991.8200073242188000,56.4838104248046900,672.6929931640625000,4.2091960906982420,52.8321418762207000,52,98,86,78,78,15226,2147754486,2147421952,2148013330,2147874230,2147642404,2147056539,2148263451,2147197412,43,4,13,14134
1382413829,5806,986.7000122070312000,57.4204788208007800,672.7871704101562000,4.2060790061950680,52.7134704589843750,52,97,83,77,77,15233,2147759469,2147423158,2148014555,2147875648,2147642432,2147058724,2148264036,2147200777,3138,4,13,62990
1382417429,5807,993.3200073242188000,57.9752311706543000,673.3649291992188000,4.1869769096374510,52.6511192321777340,51,97,85,79,78,15232,2147754898,2147425536,2148010971,2147871826,2147640630,2147057024,2148264832,2147199808,168,4,13,18152
1382421029,5809,988.8200073242188000,57.6222496032714840,674.2061767578125000,4.1591491699218750,52.7068405151367200,52,99,86,77,79,15232,2147755821,2147423853,2148012324,2147871753,2147640137,2147050770,2148269156,2147195126,3476,4,13,43396
1382424629,5811,992.0399780273438000,58.0475692749023440,673.9077758789062000,4.1690239906311035,52.6470489501953100,52,97,84,79,79,15231,2147756498,2147423542,2148010084,2147876370,2147639122,2147053412,2148269394,2147195885,369,4,13,2530
1382428229,5809,991.5200195312500000,57.3212699890136700,674.5084838867188000,4.1491489410400390,52.7464599609375000,52,99,85,77,78,15231,2147756251,2147426203,2148012086,2147874294,2147643602,2147054564,2148263579,2147197979,73,4,13,44366
1382431829,5812,986.2500000000000000,57.8173789978027340,675.1417236328125000,4.1281991004943850,52.6908607482910160,53,98,87,79,78,15232,2147759908,2147425810,2148010468,2147874816,2147642221,2147050523,2148265755,2147196708,438,4,13,19189
1382435429,5808,990.2999877929688000,58.4039382934570300,675.3972778320312000,4.1197381019592285,52.6209182739257800,52,97,81,77,79,15235,2147755053,2147424969,2148013421,2147874249,2147641408,2147058066,2148265417,2147194358,370,4,13,10298
1382439029,5806,989.2299804687500000,58.3326606750488300,674.9954833984375000,4.1330361366271970,52.6248016357421900,53,97,84,78,79,15232,2147759177,2147425225,2148012379,2147876809,2147642486,2147055104,2148267666,2147196873,3586,4,13,7670
1382442629,5812,994.3200073242188000,58.0507888793945300,674.8126220703125000,4.1390881538391110,52.6563301086425800,53,96,84,78,79,15233,2147755090,2147422272,2148008722,2147871478,2147641389,2147056758,2148262729,2147194715,232,4,13,34161
1382446229,5814,1001.9500122070312000,57.8037986755371100,673.4735717773438000,4.1833839416503910,52.6731491088867200,52,96,86,78,78,15232,2147757979,2147423122,2148011684,2147874889,2147642706,2147056329,2148262774,2147194176,3318,4,13,16537
1382449829,5809,1002.6799926757812000,57.4367218017578100,673.0960083007812000,4.1958689689636230,52.7123908996582000,52,96,85,78,77,15233,2147758180,2147423945,2148012132,2147875529,2147643867,2147061110,2148262921,2147198875,3348,4,13,30891
1382453429,5810,998.8300170898438000,57.1095504760742200,672.0701293945312000,4.2297902107238770,52.7456283569335940,52,96,87,78,78,15231,2147758720,2147422308,2148008438,2147873856,2147643108,2147056347,2148265371,2147197869,3453,4,13,17121
1382457029,5810,992.3099975585938000,57.1898803710937500,673.9418945312500000,4.1678938865661620,52.7561416625976560,52,95,85,78,79,15229,2147757595,2147421202,2148011584,2147873426,2147642038,2147052196,2148262829,2147196224,3480,4,13,10302
1382460629,5811,999.2100219726562000,57.8384704589843750,673.8306274414062000,4.1715760231018070,52.6745796203613300,53,97,85,78,77,15232,2147759286,2147423268,2148012763,2147875227,2147642322,2147051611,2148268507,2147196882,162,4,13,52602
1382464229,5810,992.2999877929688000,57.2976608276367200,673.5963745117188000,4.1793208122253420,52.7423782348632800,52,98,82,79,78,15231,2147757696,2147423744,2148009179,2147872512,2147642715,2147054070,2148267885,2147197595,227,4,13,28812
1382467829,5811,989.8699951171875000,57.3706398010253900,674.4655151367188000,4.1505718231201170,52.7451705932617200,53,95,86,76,78,15227,2147756480,2147422125,2148012370,2147874633,2147642029,2147057910,2148267291,2147193846,3482,3,13,12379
1382471429,5807,990.3699951171875000,57.6319885253906250,674.8577880859375000,4.1375899314880370,52.7131690979003900,51,98,83,78,79,15230,2147761380,2147422930,2148013074,2147873965,2147641792,2147059849,2148260562,2147192603,3553,4,13,10263
1382471755,5807,993.2000122070312000,57.6364593505859400,674.8834838867188000,4.1367440223693850,52.7094993591308600,52,96,88,78,79,15254,2147754176,2147421202,2148010560,2147869522,2147644662,2147049563,2148263698,2147197001,3012,4,13,42613
